Wetterdaten: Donnerstag, 12.08.2010
Datum Zeit Temp. I. Temp. A. Boden 5 cm Feuchte A. Sonne Luftdruck Regen Wind
12.08.2010 00:02 23,5 C 19,6 C 18,9 C 82 % 0 % 1009 hPa 0,0 l/m 0,0 km/h (0 Bft)
12.08.2010 00:05 23,5 C 19,6 C 18,9 C 82 % 0 % 1009 hPa 0,0 l/m 0,0 km/h (0 Bft)
12.08.2010 00:08 23,5 C 19,6 C 18,9 C 82 % 0 % 1009 hPa 0,0 l/m 0,0 km/h (0 Bft)
12.08.2010 00:11 23,5 C 19,6 C 18,8 C 82 % 0 % 1009 hPa 0,0 l/m 0,0 km/h (0 Bft)
12.08.2010 00:14 23,5 C 19,5 C 18,8 C 82 % 0 % 1009 hPa 0,0 l/m 0,0 km/h (0 Bft)
12.08.2010 00:17 23,5 C 19,5 C 18,8 C 82 % 0 % 1009 hPa 0,0 l/m 0,0 km/h (0 Bft)
12.08.2010 00:20 23,5 C 19,5 C 18,8 C 82 % 0 % 1009 hPa 0,0 l/m 0,0 km/h (0 Bft)
12.08.2010 00:23 23,5 C 19,5 C 18,7 C 82 % 0 % 1009 hPa 0,0 l/m 0,0 km/h (0 Bft)
12.08.2010 00:26 23,5 C 19,5 C 18,7 C 82 % 0 % 1009 hPa 0,0 l/m 0,0 km/h (0 Bft)
12.08.2010 00:29 23,5 C 19,5 C 18,6 C 82 % 0 % 1009 hPa 0,0 l/m 0,0 km/h (0 Bft)
12.08.2010 00:32 23,5 C 19,5 C 18,6 C 82 % 0 % 1009 hPa 0,0 l/m 0,0 km/h (0 Bft)
12.08.2010 00:35 23,5 C 19,1 C 18,6 C 82 % 0 % 1009 hPa 0,0 l/m 0,0 km/h (0 Bft)
12.08.2010 00:38 23,5 C 19,1 C 18,6 C 82 % 0 % 1009 hPa 0,0 l/m 0,0 km/h (0 Bft)
12.08.2010 00:41 23,5 C 19,1 C 18,5 C 82 % 0 % 1009 hPa 0,0 l/m 0,1 km/h (0 Bft)
12.08.2010 00:44 23,5 C 19,1 C 18,5 C 82 % 0 % 1009 hPa 0,0 l/m 0,3 km/h (0 Bft)
12.08.2010 00:47 23,5 C 19,1 C 18,6 C 82 % 0 % 1009 hPa 0,0 l/m 0,1 km/h (0 Bft)
12.08.2010 00:50 23,5 C 19,1 C 18,5 C 82 % 0 % 1009 hPa 0,0 l/m 0,0 km/h (0 Bft)
12.08.2010 00:53 23,4 C 19,1 C 18,5 C 82 % 0 % 1009 hPa 0,0 l/m 0,0 km/h (0 Bft)
12.08.2010 00:56 23,4 C 19,0 C 18,4 C 83 % 0 % 1009 hPa 0,0 l/m 0,0 km/h (0 Bft)
12.08.2010 00:59 23,4 C 19,0 C 18,4 C 83 % 0 % 1009 hPa 0,0 l/m 0,0 km/h (0 Bft)
12.08.2010 01:02 23,4 C 19,0 C 18,4 C 83 % 0 % 1009 hPa 0,0 l/m 0,0 km/h (0 Bft)
12.08.2010 01:05 23,5 C 18,9 C 18,3 C 83 % 0 % 1009 hPa 0,0 l/m 0,0 km/h (0 Bft)
12.08.2010 01:08 23,4 C 18,8 C 18,3 C 83 % 0 % 1009 hPa 0,0 l/m 0,0 km/h (0 Bft)
12.08.2010 01:11 23,4 C 18,8 C 18,3 C 83 % 0 % 1009 hPa 0,0 l/m 0,0 km/h (0 Bft)
12.08.2010 01:14 23,4 C 18,8 C 18,3 C 83 % 0 % 1009 hPa 0,0 l/m 0,0 km/h (0 Bft)
12.08.2010 01:17 23,4 C 18,8 C 18,3 C 83 % 0 % 1009 hPa 0,0 l/m 0,0 km/h (0 Bft)
12.08.2010 01:20 23,4 C 18,8 C 18,3 C 83 % 0 % 1009 hPa 0,0 l/m 0,0 km/h (0 Bft)
12.08.2010 01:23 23,4 C 18,8 C 18,3 C 83 % 0 % 1009 hPa 0,0 l/m 0,0 km/h (0 Bft)
12.08.2010 01:26 23,4 C 18,7 C 18,3 C 84 % 0 % 1009 hPa 0,0 l/m 0,0 km/h (0 Bft)
12.08.2010 01:29 23,4 C 18,6 C 18,3 C 84 % 0 % 1009 hPa 0,0 l/m 0,0 km/h (0 Bft)
12.08.2010 01:32 23,4 C 18,6 C 18,2 C 84 % 0 % 1009 hPa 0,0 l/m 0,0 km/h (0 Bft)
12.08.2010 01:35 23,4 C 18,6 C 18,3 C 84 % 0 % 1009 hPa 0,0 l/m 0,0 km/h (0 Bft)
12.08.2010 01:38 23,4 C 18,4 C 18,2 C 84 % 0 % 1009 hPa 0,0 l/m 0,0 km/h (0 Bft)
12.08.2010 01:41 23,4 C 18,3 C 18,2 C 85 % 0 % 1009 hPa 0,0 l/m 0,0 km/h (0 Bft)
12.08.2010 01:44 23,4 C 18,2 C 18,2 C 85 % 0 % 1009 hPa 0,0 l/m 0,0 km/h (0 Bft)
12.08.2010 01:47 23,4 C 18,2 C 18,1 C 86 % 0 % 1009 hPa 0,0 l/m 0,0 km/h (0 Bft)
12.08.2010 01:50 23,4 C 18,2 C 18,2 C 86 % 0 % 1009 hPa 0,0 l/m 0,0 km/h (0 Bft)
12.08.2010 01:53 23,4 C 18,0 C 18,0 C 87 % 0 % 1009 hPa 0,0 l/m 1,3 km/h (1 Bft)
12.08.2010 01:56 23,4 C 18,0 C 18,1 C 87 % 0 % 1009 hPa 0,0 l/m 1,3 km/h (1 Bft)
12.08.2010 01:59 23,4 C 17,9 C 18,1 C 89 % 0 % 1008 hPa 0,0 l/m 1,3 km/h (1 Bft)
12.08.2010 02:02 23,4 C 17,9 C 18,0 C 89 % 0 % 1008 hPa 0,0 l/m 1,3 km/h (1 Bft)
12.08.2010 02:05 23,4 C 17,9 C 18,0 C 89 % 0 % 1008 hPa 0,0 l/m 0,1 km/h (0 Bft)
12.08.2010 02:08 23,4 C 17,9 C 18,0 C 88 % 0 % 1008 hPa 0,0 l/m 0,0 km/h (0 Bft)
12.08.2010 02:11 23,4 C 17,9 C 18,0 C 88 % 0 % 1008 hPa 0,0 l/m 0,0 km/h (0 Bft)
12.08.2010 02:14 23,4 C 17,9 C 17,9 C 88 % 0 % 1008 hPa 0,0 l/m 0,0 km/h (0 Bft)
12.08.2010 02:17 23,4 C 17,9 C 18,0 C 88 % 0 % 1008 hPa 0,0 l/m 0,0 km/h (0 Bft)
12.08.2010 02:20 23,4 C 17,9 C 18,0 C 88 % 0 % 1008 hPa 0,0 l/m 0,0 km/h (0 Bft)
12.08.2010 02:23 23,4 C 18,0 C 18,0 C 87 % 0 % 1008 hPa 0,0 l/m 0,0 km/h (0 Bft)
12.08.2010 02:26 23,4 C 18,0 C 18,0 C 87 % 0 % 1008 hPa 0,0 l/m 0,0 km/h (0 Bft)
12.08.2010 02:29 23,4 C 18,0 C 17,9 C 87 % 0 % 1008 hPa 0,0 l/m 0,0 km/h (0 Bft)
12.08.2010 02:32 23,4 C 18,0 C 17,8 C 87 % 0 % 1008 hPa 0,0 l/m 0,0 km/h (0 Bft)
12.08.2010 02:35 23,4 C 18,0 C 17,9 C 87 % 0 % 1008 hPa 0,0 l/m 0,0 km/h (0 Bft)
12.08.2010 02:38 23,4 C 18,0 C 17,8 C 87 % 0 % 1008 hPa 0,0 l/m 0,3 km/h (0 Bft)
12.08.2010 02:41 23,4 C 18,0 C 17,8 C 87 % 0 % 1008 hPa 0,0 l/m 4,6 km/h (1 Bft)
12.08.2010 02:44 23,4 C 18,0 C 17,8 C 87 % 0 % 1008 hPa 0,0 l/m 0,1 km/h (0 Bft)
12.08.2010 02:47 23,4 C 17,6 C 17,8 C 87 % 0 % 1008 hPa 0,0 l/m 0,0 km/h (0 Bft)
12.08.2010 02:50 23,4 C 17,6 C 17,8 C 87 % 0 % 1008 hPa 0,0 l/m 0,0 km/h (0 Bft)
12.08.2010 02:53 23,4 C 17,5 C 17,8 C 87 % 0 % 1008 hPa 0,0 l/m 0,0 km/h (0 Bft)
12.08.2010 02:56 23,4 C 17,5 C 17,8 C 87 % 0 % 1008 hPa 0,0 l/m 0,0 km/h (0 Bft)
12.08.2010 02:59 23,4 C 17,6 C 17,8 C 88 % 0 % 1008 hPa 0,0 l/m 0,0 km/h (0 Bft)
12.08.2010 03:02 23,4 C 17,6 C 17,8 C 88 % 0 % 1008 hPa 0,0 l/m 0,0 km/h (0 Bft)
12.08.2010 03:05 23,4 C 17,5 C 17,7 C 87 % 0 % 1008 hPa 0,0 l/m 0,0 km/h (0 Bft)
12.08.2010 03:08 23,4 C 17,5 C 17,7 C 87 % 0 % 1008 hPa 0,0 l/m 0,0 km/h (0 Bft)
12.08.2010 03:11 23,4 C 17,5 C 17,7 C 87 % 0 % 1008 hPa 0,0 l/m 0,0 km/h (0 Bft)
12.08.2010 03:14 23,4 C 17,5 C 17,7 C 87 % 0 % 1008 hPa 0,0 l/m 0,0 km/h (0 Bft)
12.08.2010 03:17 23,4 C 17,5 C 17,7 C 87 % 0 % 1008 hPa 0,0 l/m 0,0 km/h (0 Bft)
12.08.2010 03:20 23,4 C 17,5 C 17,7 C 87 % 0 % 1008 hPa 0,0 l/m 0,0 km/h (0 Bft)
12.08.2010 03:23 23,4 C 17,5 C 17,7 C 87 % 0 % 1008 hPa 0,0 l/m 0,0 km/h (0 Bft)
12.08.2010 03:26 23,4 C 17,5 C 17,6 C 87 % 0 % 1008 hPa 0,0 l/m 0,0 km/h (0 Bft)
12.08.2010 03:29 23,4 C 17,4 C 17,6 C 87 % 0 % 1008 hPa 0,0 l/m 0,0 km/h (0 Bft)
12.08.2010 03:32 23,3 C 17,4 C 17,6 C 87 % 0 % 1008 hPa 0,0 l/m 0,0 km/h (0 Bft)
12.08.2010 03:35 23,3 C 17,4 C 17,6 C 87 % 0 % 1008 hPa 0,0 l/m 0,0 km/h (0 Bft)
12.08.2010 03:38 23,3 C 17,4 C 17,7 C 87 % 0 % 1008 hPa 0,0 l/m 0,0 km/h (0 Bft)
12.08.2010 03:41 23,4 C 17,4 C 17,7 C 87 % 0 % 1008 hPa 0,0 l/m 0,0 km/h (0 Bft)
12.08.2010 03:44 23,3 C 17,4 C 17,7 C 87 % 0 % 1008 hPa 0,0 l/m 0,0 km/h (0 Bft)
12.08.2010 03:47 23,3 C 17,4 C 17,7 C 87 % 0 % 1008 hPa 0,0 l/m 0,0 km/h (0 Bft)
12.08.2010 03:50 23,3 C 17,4 C 17,6 C 87 % 0 % 1008 hPa 0,0 l/m 0,0 km/h (0 Bft)
12.08.2010 03:53 23,3 C 17,4 C 17,5 C 87 % 0 % 1008 hPa 0,0 l/m 0,0 km/h (0 Bft)
12.08.2010 03:56 23,3 C 17,4 C 17,5 C 87 % 0 % 1008 hPa 0,0 l/m 0,0 km/h (0 Bft)
12.08.2010 03:59 23,3 C 17,3 C 17,5 C 87 % 0 % 1008 hPa 0,0 l/m 0,0 km/h (0 Bft)
12.08.2010 04:02 23,3 C 17,3 C 17,5 C 87 % 0 % 1008 hPa 0,0 l/m 0,0 km/h (0 Bft)
12.08.2010 04:05 23,3 C 17,3 C 17,5 C 87 % 0 % 1008 hPa 0,0 l/m 0,0 km/h (0 Bft)
12.08.2010 04:08 23,3 C 17,3 C 17,5 C 87 % 0 % 1008 hPa 0,0 l/m 0,0 km/h (0 Bft)
12.08.2010 04:11 23,3 C 17,3 C 17,5 C 87 % 0 % 1008 hPa 0,0 l/m 0,0 km/h (0 Bft)
12.08.2010 04:14 23,3 C 17,3 C 17,5 C 87 % 0 % 1008 hPa 0,0 l/m 0,0 km/h (0 Bft)
12.08.2010 04:17 23,3 C 17,3 C 17,5 C 87 % 0 % 1008 hPa 0,0 l/m 0,0 km/h (0 Bft)
12.08.2010 04:20 23,3 C 17,2 C 17,5 C 87 % 0 % 1008 hPa 0,0 l/m 0,0 km/h (0 Bft)
12.08.2010 04:23 23,3 C 17,2 C 17,5 C 87 % 0 % 1008 hPa 0,0 l/m 0,0 km/h (0 Bft)
12.08.2010 04:26 23,3 C 17,2 C 17,4 C 87 % 0 % 1008 hPa 0,0 l/m 0,0 km/h (0 Bft)
12.08.2010 04:29 23,3 C 17,2 C 17,4 C 87 % 0 % 1008 hPa 0,0 l/m 0,0 km/h (0 Bft)
12.08.2010 04:32 23,3 C 17,0 C 17,4 C 87 % 0 % 1008 hPa 0,0 l/m 0,0 km/h (0 Bft)
12.08.2010 04:35 23,3 C 17,0 C 17,3 C 87 % 0 % 1007 hPa 0,0 l/m 0,0 km/h (0 Bft)
12.08.2010 04:38 23,3 C 17,0 C 17,3 C 87 % 0 % 1007 hPa 0,0 l/m 0,0 km/h (0 Bft)
12.08.2010 04:41 23,3 C 17,0 C 17,3 C 87 % 0 % 1007 hPa 0,0 l/m 0,0 km/h (0 Bft)
12.08.2010 04:44 23,3 C 17,0 C 17,3 C 87 % 0 % 1007 hPa 0,0 l/m 0,0 km/h (0 Bft)
12.08.2010 04:47 23,3 C 17,0 C 17,3 C 87 % 0 % 1007 hPa 0,0 l/m 0,0 km/h (0 Bft)
12.08.2010 04:50 23,3 C 17,0 C 17,1 C 87 % 0 % 1007 hPa 0,0 l/m 0,0 km/h (0 Bft)
12.08.2010 04:53 23,3 C 16,9 C 17,2 C 87 % 0 % 1007 hPa 0,0 l/m 0,0 km/h (0 Bft)
12.08.2010 04:56 23,3 C 16,8 C 17,0 C 87 % 0 % 1007 hPa 0,0 l/m 0,0 km/h (0 Bft)
12.08.2010 04:59 23,3 C 16,7 C 17,1 C 88 % 0 % 1007 hPa 0,0 l/m 0,0 km/h (0 Bft)
12.08.2010 05:02 23,3 C 16,7 C 17,2 C 88 % 0 % 1007 hPa 0,0 l/m 0,0 km/h (0 Bft)
12.08.2010 05:05 23,3 C 16,5 C 17,3 C 89 % 0 % 1007 hPa 0,0 l/m 0,0 km/h (0 Bft)
12.08.2010 05:08 23,3 C 16,5 C 17,2 C 89 % 0 % 1007 hPa 0,0 l/m 0,0 km/h (0 Bft)
12.08.2010 05:11 23,3 C 16,4 C 17,2 C 89 % 0 % 1007 hPa 0,0 l/m 0,0 km/h (0 Bft)
12.08.2010 05:14 23,3 C 16,4 C 17,1 C 89 % 0 % 1007 hPa 0,0 l/m 0,0 km/h (0 Bft)
12.08.2010 05:17 23,3 C 16,4 C 17,2 C 89 % 0 % 1007 hPa 0,0 l/m 0,0 km/h (0 Bft)
12.08.2010 05:20 23,3 C 16,4 C 17,2 C 89 % 0 % 1007 hPa 0,0 l/m 0,0 km/h (0 Bft)
12.08.2010 05:23 23,3 C 16,4 C 17,2 C 89 % 0 % 1007 hPa 0,0 l/m 0,0 km/h (0 Bft)
12.08.2010 05:26 23,3 C 16,4 C 17,1 C 89 % 0 % 1007 hPa 0,0 l/m 0,0 km/h (0 Bft)
12.08.2010 05:29 23,3 C 16,4 C 17,2 C 89 % 0 % 1007 hPa 0,0 l/m 0,0 km/h (0 Bft)
12.08.2010 05:32 23,3 C 16,4 C 17,2 C 89 % 0 % 1007 hPa 0,0 l/m 0,0 km/h (0 Bft)
12.08.2010 05:35 23,2 C 16,4 C 17,2 C 89 % 0 % 1007 hPa 0,0 l/m 0,0 km/h (0 Bft)
12.08.2010 05:38 23,3 C 16,4 C 17,2 C 89 % 0 % 1007 hPa 0,0 l/m 0,0 km/h (0 Bft)
12.08.2010 05:41 23,3 C 16,4 C 17,2 C 89 % 0 % 1007 hPa 0,0 l/m 0,0 km/h (0 Bft)
12.08.2010 05:44 23,3 C 16,4 C 17,2 C 89 % 0 % 1007 hPa 0,0 l/m 0,0 km/h (0 Bft)
12.08.2010 05:47 23,3 C 16,4 C 17,1 C 89 % 0 % 1007 hPa 0,0 l/m 0,0 km/h (0 Bft)
12.08.2010 05:50 23,2 C 16,4 C 17,1 C 89 % 0 % 1007 hPa 0,0 l/m 0,0 km/h (0 Bft)
12.08.2010 05:53 23,3 C 16,4 C 17,1 C 89 % 0 % 1007 hPa 0,0 l/m 0,0 km/h (0 Bft)
12.08.2010 05:56 23,2 C 16,4 C 17,1 C 89 % 0 % 1007 hPa 0,0 l/m 0,0 km/h (0 Bft)
12.08.2010 05:59 23,2 C 16,4 C 17,1 C 89 % 0 % 1007 hPa 0,0 l/m 0,0 km/h (0 Bft)
12.08.2010 06:02 23,2 C 16,4 C 17,1 C 89 % 0 % 1007 hPa 0,0 l/m 0,0 km/h (0 Bft)
12.08.2010 06:05 23,2 C 16,4 C 17,2 C 89 % 0 % 1007 hPa 0,0 l/m 0,0 km/h (0 Bft)
12.08.2010 06:08 23,2 C 16,4 C 17,1 C 89 % 0 % 1007 hPa 0,0 l/m 0,0 km/h (0 Bft)
12.08.2010 06:11 23,2 C 16,4 C 17,2 C 89 % 0 % 1007 hPa 0,0 l/m 0,0 km/h (0 Bft)
12.08.2010 06:14 23,2 C 16,3 C 17,2 C 89 % 0 % 1007 hPa 0,0 l/m 0,0 km/h (0 Bft)
12.08.2010 06:17 23,2 C 16,3 C 17,2 C 89 % 0 % 1007 hPa 0,0 l/m 0,0 km/h (0 Bft)
12.08.2010 06:20 23,3 C 16,2 C 17,2 C 89 % 0 % 1007 hPa 0,0 l/m 0,0 km/h (0 Bft)
12.08.2010 06:23 23,2 C 16,2 C 17,2 C 89 % 0 % 1007 hPa 0,0 l/m 0,0 km/h (0 Bft)
12.08.2010 06:26 23,3 C 16,1 C 17,2 C 89 % 0 % 1007 hPa 0,0 l/m 0,0 km/h (0 Bft)
12.08.2010 06:29 23,2 C 16,1 C 17,2 C 89 % 0 % 1007 hPa 0,0 l/m 0,0 km/h (0 Bft)
12.08.2010 06:32 23,2 C 16,1 C 17,2 C 89 % 0 % 1007 hPa 0,0 l/m 0,0 km/h (0 Bft)
12.08.2010 06:35 23,3 C 16,2 C 17,2 C 89 % 0 % 1007 hPa 0,0 l/m 0,0 km/h (0 Bft)
12.08.2010 06:38 23,3 C 16,1 C 17,2 C 90 % 0 % 1007 hPa 0,0 l/m 0,0 km/h (0 Bft)
12.08.2010 06:41 23,3 C 16,1 C 17,2 C 90 % 0 % 1007 hPa 0,0 l/m 0,0 km/h (0 Bft)
12.08.2010 06:44 23,2 C 16,1 C 17,2 C 90 % 0 % 1007 hPa 0,0 l/m 0,0 km/h (0 Bft)
12.08.2010 06:47 23,3 C 16,1 C 17,2 C 90 % 0 % 1007 hPa 0,0 l/m 0,0 km/h (0 Bft)
12.08.2010 06:50 23,3 C 16,3 C 17,3 C 90 % 0 % 1007 hPa 0,0 l/m 0,0 km/h (0 Bft)
12.08.2010 06:53 23,2 C 16,3 C 17,3 C 90 % 0 % 1007 hPa 0,0 l/m 0,0 km/h (0 Bft)
12.08.2010 06:56 23,3 C 16,4 C 17,3 C 90 % 0 % 1007 hPa 0,0 l/m 0,0 km/h (0 Bft)
12.08.2010 06:59 23,3 C 16,4 C 17,4 C 90 % 0 % 1007 hPa 0,0 l/m 0,0 km/h (0 Bft)
12.08.2010 07:02 23,3 C 16,6 C 17,4 C 90 % 0 % 1007 hPa 0,0 l/m 0,0 km/h (0 Bft)
12.08.2010 07:05 23,3 C 16,8 C 17,5 C 90 % 0 % 1007 hPa 0,0 l/m 0,0 km/h (0 Bft)
12.08.2010 07:08 23,3 C 16,8 C 17,6 C 90 % 0 % 1007 hPa 0,0 l/m 0,0 km/h (0 Bft)
12.08.2010 07:11 23,4 C 16,9 C 17,6 C 90 % 0 % 1007 hPa 0,0 l/m 0,0 km/h (0 Bft)
12.08.2010 07:14 23,4 C 16,9 C 17,7 C 90 % 0 % 1006 hPa 0,0 l/m 0,0 km/h (0 Bft)
12.08.2010 07:17 23,4 C 17,2 C 17,7 C 90 % 0 % 1006 hPa 0,0 l/m 0,0 km/h (0 Bft)
12.08.2010 07:20 23,3 C 17,2 C 17,9 C 90 % 0 % 1007 hPa 0,0 l/m 0,0 km/h (0 Bft)
12.08.2010 07:23 23,4 C 17,2 C 18,0 C 90 % 0 % 1006 hPa 0,0 l/m 0,0 km/h (0 Bft)
12.08.2010 07:26 23,3 C 17,2 C 18,1 C 90 % 0 % 1007 hPa 0,0 l/m 0,0 km/h (0 Bft)
12.08.2010 07:29 23,4 C 17,2 C 18,1 C 90 % 0 % 1006 hPa 0,0 l/m 0,0 km/h (0 Bft)
12.08.2010 07:32 23,4 C 17,8 C 18,1 C 90 % 0 % 1006 hPa 0,0 l/m 0,0 km/h (0 Bft)
12.08.2010 07:35 23,4 C 17,8 C 18,3 C 90 % 0 % 1006 hPa 0,0 l/m 0,0 km/h (0 Bft)
12.08.2010 07:38 23,3 C 17,8 C 18,5 C 90 % 0 % 1006 hPa 0,0 l/m 0,0 km/h (0 Bft)
12.08.2010 07:41 23,4 C 18,3 C 18,5 C 89 % 0 % 1006 hPa 0,0 l/m 0,0 km/h (0 Bft)
12.08.2010 07:44 23,3 C 18,3 C 18,5 C 89 % 0 % 1006 hPa 0,0 l/m 0,0 km/h (0 Bft)
12.08.2010 07:47 23,2 C 18,3 C 18,5 C 89 % 0 % 1006 hPa 0,0 l/m 0,0 km/h (0 Bft)
12.08.2010 07:50 23,0 C 18,4 C 18,6 C 88 % 0 % 1007 hPa 0,0 l/m 0,0 km/h (0 Bft)
12.08.2010 07:53 22,9 C 18,5 C 18,6 C 88 % 0 % 1007 hPa 0,0 l/m 0,0 km/h (0 Bft)
12.08.2010 07:56 22,7 C 18,6 C 18,6 C 88 % 0 % 1007 hPa 0,0 l/m 0,0 km/h (0 Bft)
12.08.2010 07:59 22,6 C 18,6 C 18,8 C 88 % 0 % 1007 hPa 0,0 l/m 0,0 km/h (0 Bft)
12.08.2010 08:02 22,5 C 18,6 C 18,8 C 88 % 0 % 1006 hPa 0,0 l/m 0,0 km/h (0 Bft)
12.08.2010 08:05 22,4 C 18,6 C 18,9 C 88 % 0 % 1006 hPa 0,0 l/m 0,0 km/h (0 Bft)
12.08.2010 08:08 22,4 C 18,6 C 18,9 C 88 % 0 % 1006 hPa 0,0 l/m 0,0 km/h (0 Bft)
12.08.2010 08:11 22,4 C 18,6 C 19,1 C 88 % 0 % 1006 hPa 0,0 l/m 0,0 km/h (0 Bft)
12.08.2010 08:14 22,3 C 18,6 C 19,3 C 88 % 0 % 1007 hPa 0,0 l/m 0,0 km/h (0 Bft)
12.08.2010 08:17 22,3 C 18,6 C 19,5 C 88 % 0 % 1007 hPa 0,0 l/m 0,0 km/h (0 Bft)
12.08.2010 08:20 22,3 C 18,6 C 19,7 C 88 % 0 % 1007 hPa 0,0 l/m 0,0 km/h (0 Bft)
12.08.2010 08:23 22,4 C 18,6 C 19,9 C 88 % 0 % 1006 hPa 0,0 l/m 4,7 km/h (1 Bft)
12.08.2010 08:26 22,4 C 18,6 C 19,7 C 88 % 0 % 1006 hPa 0,0 l/m 6,4 km/h (2 Bft)
12.08.2010 08:29 22,5 C 19,6 C 19,6 C 85 % 0 % 1007 hPa 0,0 l/m 10,6 km/h (2 Bft)
12.08.2010 08:32 22,5 C 19,6 C 19,6 C 85 % 0 % 1007 hPa 0,0 l/m 6,8 km/h (2 Bft)
12.08.2010 08:35 22,5 C 19,5 C 19,6 C 84 % 0 % 1007 hPa 0,0 l/m 2,1 km/h (1 Bft)
12.08.2010 08:38 22,5 C 19,6 C 19,6 C 84 % 0 % 1007 hPa 0,0 l/m 2,0 km/h (1 Bft)
12.08.2010 08:41 22,5 C 19,6 C 19,7 C 84 % 0 % 1007 hPa 0,0 l/m 10,8 km/h (2 Bft)
12.08.2010 08:44 22,6 C 19,6 C 19,5 C 84 % 0 % 1007 hPa 0,0 l/m 10,5 km/h (2 Bft)
12.08.2010 08:47 22,6 C 19,6 C 19,4 C 84 % 0 % 1007 hPa 0,0 l/m 1,3 km/h (1 Bft)
12.08.2010 08:50 22,5 C 19,5 C 19,4 C 82 % 0 % 1007 hPa 0,0 l/m 5,7 km/h (1 Bft)
12.08.2010 08:53 22,5 C 19,5 C 19,5 C 82 % 0 % 1007 hPa 0,0 l/m 5,7 km/h (1 Bft)
12.08.2010 08:56 22,6 C 19,5 C 19,5 C 82 % 0 % 1007 hPa 0,0 l/m 9,2 km/h (2 Bft)
12.08.2010 08:59 22,6 C 19,5 C 19,6 C 82 % 0 % 1007 hPa 0,0 l/m 6,5 km/h (2 Bft)
12.08.2010 09:02 22,6 C 19,6 C 19,6 C 83 % 0 % 1007 hPa 0,0 l/m 8,7 km/h (2 Bft)
12.08.2010 09:05 22,6 C 19,8 C 19,8 C 83 % 0 % 1007 hPa 0,0 l/m 6,7 km/h (2 Bft)
12.08.2010 09:08 22,6 C 19,8 C 19,7 C 83 % 0 % 1007 hPa 0,0 l/m 11,1 km/h (2 Bft)
12.08.2010 09:11 22,6 C 19,8 C 19,7 C 83 % 0 % 1007 hPa 0,0 l/m 8,9 km/h (2 Bft)
12.08.2010 09:14 22,6 C 19,8 C 19,8 C 83 % 0 % 1007 hPa 0,0 l/m 8,4 km/h (2 Bft)
12.08.2010 09:17 22,6 C 19,9 C 19,7 C 82 % 0 % 1007 hPa 0,0 l/m 12,1 km/h (2 Bft)
12.08.2010 09:20 22,6 C 19,9 C 19,7 C 82 % 0 % 1007 hPa 0,0 l/m 7,3 km/h (2 Bft)
12.08.2010 09:23 22,6 C 19,9 C 19,8 C 81 % 0 % 1007 hPa 0,0 l/m 8,7 km/h (2 Bft)
12.08.2010 09:26 22,6 C 20,0 C 19,9 C 81 % 0 % 1007 hPa 0,0 l/m 9,4 km/h (2 Bft)
12.08.2010 09:29 22,6 C 20,0 C 20,0 C 82 % 0 % 1007 hPa 0,0 l/m 6,5 km/h (2 Bft)
12.08.2010 09:32 22,6 C 20,1 C 20,0 C 82 % 0 % 1007 hPa 0,0 l/m 7,2 km/h (2 Bft)
12.08.2010 09:35 22,6 C 20,1 C 20,1 C 82 % 0 % 1007 hPa 0,0 l/m 0,4 km/h (0 Bft)
12.08.2010 09:38 22,5 C 20,1 C 20,2 C 82 % 0 % 1007 hPa 0,0 l/m 1,5 km/h (1 Bft)
12.08.2010 09:41 22,6 C 20,1 C 20,2 C 82 % 0 % 1007 hPa 0,0 l/m 7,2 km/h (2 Bft)
12.08.2010 09:44 22,6 C 20,1 C 20,2 C 82 % 0 % 1007 hPa 0,0 l/m 7,2 km/h (2 Bft)
12.08.2010 09:47 22,5 C 20,1 C 20,1 C 82 % 0 % 1007 hPa 0,0 l/m 6,3 km/h (2 Bft)
12.08.2010 09:50 22,5 C 20,5 C 20,0 C 80 % 0 % 1007 hPa 0,0 l/m 1,7 km/h (1 Bft)
12.08.2010 09:53 22,6 C 20,5 C 20,1 C 80 % 0 % 1007 hPa 0,0 l/m 0,5 km/h (0 Bft)
12.08.2010 09:56 22,6 C 20,5 C 20,3 C 80 % 0 % 1007 hPa 0,0 l/m 0,1 km/h (0 Bft)
12.08.2010 09:59 22,6 C 20,7 C 20,3 C 79 % 0 % 1007 hPa 0,0 l/m 0,7 km/h (0 Bft)
12.08.2010 10:02 22,5 C 20,7 C 20,4 C 79 % 0 % 1007 hPa 0,0 l/m 1,6 km/h (1 Bft)
12.08.2010 10:05 22,5 C 20,7 C 20,4 C 79 % 0 % 1007 hPa 0,0 l/m 0,3 km/h (0 Bft)
12.08.2010 10:08 22,5 C 20,7 C 20,5 C 79 % 0 % 1007 hPa 0,0 l/m 0,4 km/h (0 Bft)
12.08.2010 10:11 22,5 C 20,7 C 20,4 C 79 % 0 % 1007 hPa 0,0 l/m 0,6 km/h (0 Bft)
12.08.2010 10:14 22,5 C 20,7 C 20,4 C 79 % 0 % 1007 hPa 0,0 l/m 0,6 km/h (0 Bft)
12.08.2010 10:17 22,5 C 20,7 C 20,4 C 79 % 0 % 1007 hPa 0,0 l/m 7,5 km/h (2 Bft)
12.08.2010 10:20 22,5 C 20,8 C 20,6 C 79 % 0 % 1007 hPa 0,0 l/m 4,0 km/h (1 Bft)
12.08.2010 10:23 22,5 C 20,8 C 20,6 C 79 % 0 % 1007 hPa 0,0 l/m 4,8 km/h (1 Bft)
12.08.2010 10:26 22,6 C 20,8 C 20,7 C 79 % 0 % 1007 hPa 0,0 l/m 8,0 km/h (2 Bft)
12.08.2010 10:29 22,6 C 21,1 C 20,8 C 79 % 0 % 1007 hPa 0,0 l/m 1,3 km/h (1 Bft)
12.08.2010 10:32 22,7 C 21,2 C 20,8 C 79 % 0 % 1007 hPa 0,0 l/m 0,1 km/h (0 Bft)
12.08.2010 10:35 22,6 C 21,2 C 21,0 C 79 % 0 % 1007 hPa 0,0 l/m 0,6 km/h (0 Bft)
12.08.2010 10:38 22,6 C 21,6 C 21,1 C 78 % 0 % 1007 hPa 0,0 l/m 6,7 km/h (2 Bft)
12.08.2010 10:41 22,7 C 21,7 C 21,1 C 78 % 0 % 1007 hPa 0,0 l/m 1,6 km/h (1 Bft)
12.08.2010 10:44 22,7 C 21,7 C 21,2 C 78 % 0 % 1007 hPa 0,0 l/m 7,8 km/h (2 Bft)
12.08.2010 10:47 22,7 C 21,9 C 21,3 C 77 % 0 % 1007 hPa 0,0 l/m 1,0 km/h (0 Bft)
12.08.2010 10:50 22,7 C 21,9 C 21,2 C 77 % 0 % 1007 hPa 0,0 l/m 6,5 km/h (2 Bft)
12.08.2010 10:53 22,8 C 21,9 C 21,4 C 77 % 0 % 1007 hPa 0,0 l/m 6,7 km/h (2 Bft)
12.08.2010 10:56 22,8 C 21,9 C 21,4 C 77 % 0 % 1007 hPa 0,0 l/m 4,4 km/h (1 Bft)
12.08.2010 10:59 22,8 C 21,9 C 21,9 C 77 % 0 % 1007 hPa 0,0 l/m 4,8 km/h (1 Bft)
12.08.2010 11:02 22,8 C 21,9 C 24,2 C 77 % 0 % 1007 hPa 0,0 l/m 0,5 km/h (0 Bft)
12.08.2010 11:05 22,9 C 21,9 C 22,9 C 77 % 0 % 1007 hPa 0,0 l/m 0,1 km/h (0 Bft)
12.08.2010 11:08 23,0 C 21,9 C 22,5 C 77 % 0 % 1007 hPa 0,0 l/m 0,0 km/h (0 Bft)
12.08.2010 11:11 23,3 C 21,9 C 21,8 C 77 % 0 % 1007 hPa 0,0 l/m 10,6 km/h (2 Bft)
12.08.2010 11:14 23,4 C 22,1 C 21,4 C 76 % 0 % 1007 hPa 0,0 l/m 6,0 km/h (2 Bft)
12.08.2010 11:17 23,4 C 22,1 C 21,4 C 76 % 0 % 1007 hPa 0,0 l/m 4,6 km/h (1 Bft)
12.08.2010 11:20 23,4 C 22,1 C 23,6 C 76 % 0 % 1007 hPa 0,0 l/m 4,6 km/h (1 Bft)
12.08.2010 11:23 23,4 C 22,1 C 22,7 C 76 % 0 % 1007 hPa 0,0 l/m 4,1 km/h (1 Bft)
12.08.2010 11:26 23,4 C 22,3 C 21,8 C 76 % 0 % 1007 hPa 0,0 l/m 4,8 km/h (1 Bft)
12.08.2010 11:29 23,5 C 22,3 C 21,3 C 76 % 0 % 1007 hPa 0,0 l/m 2,8 km/h (1 Bft)
12.08.2010 11:32 23,5 C 22,3 C 21,2 C 76 % 0 % 1007 hPa 0,0 l/m 8,3 km/h (2 Bft)
12.08.2010 11:35 23,5 C 22,3 C 20,9 C 76 % 0 % 1007 hPa 0,0 l/m 8,1 km/h (2 Bft)
12.08.2010 11:38 23,4 C 22,3 C 20,8 C 76 % 0 % 1007 hPa 0,0 l/m 4,9 km/h (1 Bft)
12.08.2010 11:41 23,5 C 22,3 C 20,9 C 76 % 0 % 1007 hPa 0,0 l/m 5,4 km/h (1 Bft)
12.08.2010 11:44 23,6 C 22,3 C 20,8 C 76 % 0 % 1007 hPa 0,0 l/m 10,0 km/h (2 Bft)
12.08.2010 11:47 23,6 C 21,9 C 20,9 C 77 % 0 % 1007 hPa 0,0 l/m 8,3 km/h (2 Bft)
12.08.2010 11:50 23,6 C 21,9 C 21,0 C 77 % 0 % 1007 hPa 0,0 l/m 5,4 km/h (1 Bft)
12.08.2010 11:53 23,7 C 22,0 C 21,3 C 77 % 0 % 1007 hPa 0,0 l/m 9,8 km/h (2 Bft)
12.08.2010 11:56 23,7 C 22,1 C 21,4 C 77 % 0 % 1007 hPa 0,0 l/m 8,9 km/h (2 Bft)
12.08.2010 11:59 23,7 C 22,1 C 21,8 C 77 % 0 % 1007 hPa 0,0 l/m 4,5 km/h (1 Bft)
12.08.2010 12:02 23,7 C 22,5 C 22,0 C 77 % 0 % 1007 hPa 0,0 l/m 6,0 km/h (2 Bft)
12.08.2010 12:05 23,6 C 22,5 C 22,3 C 77 % 0 % 1007 hPa 0,0 l/m 9,0 km/h (2 Bft)
12.08.2010 12:08 23,6 C 22,9 C 21,9 C 75 % 0 % 1007 hPa 0,0 l/m 7,9 km/h (2 Bft)
12.08.2010 12:11 23,6 C 22,9 C 21,7 C 75 % 0 % 1007 hPa 0,0 l/m 7,6 km/h (2 Bft)
12.08.2010 12:14 23,5 C 22,8 C 21,7 C 74 % 0 % 1007 hPa 0,0 l/m 7,6 km/h (2 Bft)
12.08.2010 12:17 23,4 C 22,8 C 21,9 C 74 % 0 % 1007 hPa 0,0 l/m 5,3 km/h (1 Bft)
12.08.2010 12:20 23,4 C 22,8 C 22,0 C 74 % 0 % 1007 hPa 0,0 l/m 8,4 km/h (2 Bft)
12.08.2010 12:23 23,5 C 22,8 C 21,9 C 74 % 0 % 1007 hPa 0,0 l/m 8,9 km/h (2 Bft)
12.08.2010 12:26 23,4 C 22,9 C 21,9 C 74 % 0 % 1007 hPa 0,0 l/m 11,4 km/h (2 Bft)
12.08.2010 12:29 23,4 C 22,9 C 21,7 C 74 % 0 % 1007 hPa 0,0 l/m 12,1 km/h (2 Bft)
12.08.2010 12:32 23,4 C 22,9 C 21,7 C 74 % 0 % 1007 hPa 0,0 l/m 15,3 km/h (3 Bft)
12.08.2010 12:35 23,4 C 22,9 C 21,8 C 74 % 0 % 1007 hPa 0,0 l/m 15,0 km/h (3 Bft)
12.08.2010 12:38 23,4 C 22,9 C 21,8 C 74 % 0 % 1007 hPa 0,0 l/m 18,1 km/h (3 Bft)
12.08.2010 12:41 23,4 C 22,9 C 21,4 C 74 % 0 % 1007 hPa 0,0 l/m 14,1 km/h (3 Bft)
12.08.2010 12:44 23,4 C 22,9 C 21,3 C 74 % 0 % 1007 hPa 0,0 l/m 17,1 km/h (3 Bft)
12.08.2010 12:47 23,3 C 22,9 C 22,1 C 74 % 0 % 1007 hPa 0,0 l/m 18,2 km/h (3 Bft)
12.08.2010 12:50 23,3 C 22,9 C 22,4 C 74 % 0 % 1007 hPa 0,0 l/m 17,7 km/h (3 Bft)
12.08.2010 12:53 23,4 C 22,9 C 22,5 C 74 % 0 % 1007 hPa 0,0 l/m 15,3 km/h (3 Bft)
12.08.2010 12:56 23,4 C 23,2 C 22,2 C 72 % 0 % 1007 hPa 0,0 l/m 11,6 km/h (2 Bft)
12.08.2010 12:59 23,4 C 23,2 C 21,7 C 71 % 0 % 1007 hPa 0,0 l/m 17,9 km/h (3 Bft)
12.08.2010 13:02 23,4 C 23,2 C 21,7 C 71 % 0 % 1007 hPa 0,0 l/m 14,5 km/h (3 Bft)
12.08.2010 13:05 23,4 C 23,2 C 21,8 C 71 % 0 % 1007 hPa 0,0 l/m 17,2 km/h (3 Bft)
12.08.2010 13:08 23,4 C 23,1 C 22,1 C 71 % 0 % 1007 hPa 0,0 l/m 14,1 km/h (3 Bft)
12.08.2010 13:11 23,4 C 23,1 C 21,8 C 71 % 0 % 1007 hPa 0,0 l/m 11,5 km/h (2 Bft)
12.08.2010 13:14 23,4 C 23,1 C 21,6 C 71 % 0 % 1007 hPa 0,0 l/m 18,7 km/h (3 Bft)
12.08.2010 13:17 23,4 C 23,1 C 21,6 C 71 % 0 % 1007 hPa 0,0 l/m 11,1 km/h (2 Bft)
12.08.2010 13:20 23,4 C 23,0 C 21,6 C 70 % 0 % 1007 hPa 0,0 l/m 20,1 km/h (4 Bft)
12.08.2010 13:23 23,4 C 23,0 C 21,5 C 70 % 0 % 1007 hPa 0,0 l/m 15,4 km/h (3 Bft)
12.08.2010 13:26 23,3 C 23,0 C 21,7 C 70 % 0 % 1007 hPa 0,0 l/m 24,1 km/h (4 Bft)
12.08.2010 13:29 23,4 C 23,0 C 21,8 C 70 % 0 % 1007 hPa 0,0 l/m 15,9 km/h (3 Bft)
12.08.2010 13:32 23,4 C 23,0 C 21,7 C 70 % 0 % 1007 hPa 0,0 l/m 15,4 km/h (3 Bft)
12.08.2010 13:35 23,4 C 23,0 C 21,8 C 70 % 0 % 1007 hPa 0,0 l/m 12,4 km/h (3 Bft)
12.08.2010 13:38 23,4 C 23,0 C 21,7 C 70 % 0 % 1007 hPa 0,0 l/m 18,0 km/h (3 Bft)
12.08.2010 13:41 23,4 C 22,9 C 21,8 C 70 % 0 % 1007 hPa 0,0 l/m 13,7 km/h (3 Bft)
12.08.2010 13:44 23,4 C 22,9 C 22,0 C 70 % 0 % 1007 hPa 0,0 l/m 14,3 km/h (3 Bft)
12.08.2010 13:47 23,3 C 22,9 C 22,3 C 70 % 0 % 1007 hPa 0,0 l/m 14,3 km/h (3 Bft)
12.08.2010 13:50 23,3 C 22,9 C 22,2 C 70 % 0 % 1007 hPa 0,0 l/m 21,0 km/h (4 Bft)
12.08.2010 13:53 23,3 C 23,0 C 22,2 C 71 % 0 % 1007 hPa 0,0 l/m 19,1 km/h (3 Bft)
12.08.2010 13:56 23,3 C 23,1 C 22,1 C 71 % 0 % 1007 hPa 0,0 l/m 15,1 km/h (3 Bft)
12.08.2010 13:59 23,3 C 23,1 C 21,9 C 70 % 0 % 1007 hPa 0,0 l/m 13,1 km/h (3 Bft)
12.08.2010 14:02 23,3 C 23,1 C 22,0 C 70 % 0 % 1007 hPa 0,0 l/m 13,7 km/h (3 Bft)
12.08.2010 14:05 23,3 C 23,0 C 22,0 C 71 % 0 % 1007 hPa 0,0 l/m 15,7 km/h (3 Bft)
12.08.2010 14:08 23,3 C 23,0 C 22,0 C 71 % 0 % 1007 hPa 0,0 l/m 12,0 km/h (2 Bft)
12.08.2010 14:11 23,4 C 23,0 C 21,9 C 72 % 0 % 1007 hPa 0,0 l/m 11,6 km/h (2 Bft)
12.08.2010 14:14 23,4 C 22,9 C 22,0 C 72 % 0 % 1007 hPa 0,0 l/m 14,1 km/h (3 Bft)
12.08.2010 14:17 23,4 C 22,9 C 21,9 C 72 % 0 % 1007 hPa 0,0 l/m 13,3 km/h (3 Bft)
12.08.2010 14:20 23,5 C 22,9 C 22,1 C 72 % 0 % 1007 hPa 0,0 l/m 13,3 km/h (3 Bft)
12.08.2010 14:23 23,5 C 22,8 C 21,9 C 72 % 0 % 1007 hPa 0,0 l/m 11,3 km/h (2 Bft)
12.08.2010 14:26 23,5 C 22,8 C 21,5 C 72 % 0 % 1007 hPa 0,0 l/m 13,5 km/h (3 Bft)
12.08.2010 14:29 23,6 C 22,6 C 21,3 C 72 % 0 % 1008 hPa 0,0 l/m 13,5 km/h (3 Bft)
12.08.2010 14:32 23,6 C 22,6 C 21,2 C 72 % 0 % 1007 hPa 0,0 l/m 4,5 km/h (1 Bft)
12.08.2010 14:35 23,6 C 22,4 C 21,1 C 72 % 0 % 1007 hPa 0,0 l/m 9,7 km/h (2 Bft)
12.08.2010 14:38 23,6 C 22,3 C 21,0 C 72 % 0 % 1007 hPa 0,0 l/m 6,8 km/h (2 Bft)
12.08.2010 14:41 23,6 C 22,3 C 20,8 C 73 % 0 % 1008 hPa 0,0 l/m 9,3 km/h (2 Bft)
12.08.2010 14:44 23,5 C 22,2 C 20,8 C 73 % 0 % 1008 hPa 0,0 l/m 4,7 km/h (1 Bft)
12.08.2010 14:47 23,5 C 22,1 C 20,7 C 73 % 0 % 1008 hPa 0,0 l/m 9,6 km/h (2 Bft)
12.08.2010 14:50 23,5 C 22,0 C 20,6 C 74 % 0 % 1007 hPa 0,0 l/m 11,4 km/h (2 Bft)
12.08.2010 14:53 23,6 C 22,0 C 20,7 C 74 % 0 % 1007 hPa 0,0 l/m 4,1 km/h (1 Bft)
12.08.2010 14:56 23,6 C 21,9 C 20,7 C 74 % 0 % 1007 hPa 0,0 l/m 8,5 km/h (2 Bft)
12.08.2010 14:59 23,6 C 21,9 C 20,6 C 74 % 0 % 1007 hPa 0,0 l/m 11,1 km/h (2 Bft)
12.08.2010 15:02 23,6 C 21,9 C 20,6 C 74 % 0 % 1007 hPa 0,0 l/m 12,5 km/h (3 Bft)
12.08.2010 15:05 23,5 C 21,8 C 20,8 C 75 % 0 % 1007 hPa 0,0 l/m 9,0 km/h (2 Bft)
12.08.2010 15:08 23,5 C 21,7 C 20,8 C 76 % 0 % 1007 hPa 0,0 l/m 8,7 km/h (2 Bft)
12.08.2010 15:11 23,5 C 21,7 C 20,9 C 76 % 0 % 1007 hPa 0,0 l/m 9,0 km/h (2 Bft)
12.08.2010 15:14 23,5 C 21,7 C 21,0 C 76 % 0 % 1007 hPa 0,0 l/m 0,5 km/h (0 Bft)
12.08.2010 15:17 23,5 C 21,7 C 21,0 C 76 % 0 % 1007 hPa 0,0 l/m 8,1 km/h (2 Bft)
12.08.2010 15:20 23,5 C 21,8 C 20,8 C 77 % 0 % 1007 hPa 0,0 l/m 8,5 km/h (2 Bft)
12.08.2010 15:23 23,4 C 21,7 C 20,7 C 77 % 0 % 1007 hPa 0,0 l/m 7,7 km/h (2 Bft)
12.08.2010 15:26 23,5 C 21,6 C 20,8 C 77 % 0 % 1007 hPa 0,0 l/m 11,6 km/h (2 Bft)
12.08.2010 15:29 23,4 C 21,6 C 21,4 C 77 % 0 % 1007 hPa 0,0 l/m 9,5 km/h (2 Bft)
12.08.2010 15:32 23,5 C 21,8 C 21,5 C 78 % 0 % 1007 hPa 0,0 l/m 12,0 km/h (2 Bft)
12.08.2010 15:35 23,5 C 21,8 C 21,9 C 78 % 0 % 1007 hPa 0,0 l/m 10,4 km/h (2 Bft)
12.08.2010 15:38 23,5 C 21,8 C 21,9 C 78 % 0 % 1007 hPa 0,0 l/m 9,4 km/h (2 Bft)
12.08.2010 15:41 23,5 C 21,8 C 22,0 C 78 % 0 % 1007 hPa 0,0 l/m 7,9 km/h (2 Bft)
12.08.2010 15:44 23,5 C 21,8 C 22,5 C 78 % 0 % 1007 hPa 0,0 l/m 7,1 km/h (2 Bft)
12.08.2010 15:47 23,5 C 21,8 C 23,2 C 78 % 0 % 1007 hPa 0,0 l/m 0,3 km/h (0 Bft)
12.08.2010 15:50 23,5 C 21,8 C 23,2 C 78 % 0 % 1007 hPa 0,0 l/m 0,3 km/h (0 Bft)
12.08.2010 15:53 23,5 C 21,8 C 23,1 C 78 % 0 % 1007 hPa 0,0 l/m 4,1 km/h (1 Bft)
12.08.2010 15:56 23,5 C 22,4 C 22,8 C 77 % 0 % 1007 hPa 0,0 l/m 8,7 km/h (2 Bft)
12.08.2010 15:59 23,5 C 22,4 C 22,7 C 76 % 0 % 1007 hPa 0,0 l/m 8,7 km/h (2 Bft)
12.08.2010 16:02 23,5 C 22,4 C 22,4 C 76 % 0 % 1007 hPa 0,0 l/m 5,0 km/h (1 Bft)
12.08.2010 16:05 23,5 C 22,5 C 22,7 C 76 % 0 % 1007 hPa 0,0 l/m 5,7 km/h (1 Bft)
12.08.2010 16:08 23,5 C 22,5 C 23,8 C 76 % 0 % 1007 hPa 0,0 l/m 1,5 km/h (1 Bft)
12.08.2010 16:11 23,5 C 22,6 C 23,8 C 77 % 0 % 1007 hPa 0,0 l/m 0,8 km/h (0 Bft)
12.08.2010 16:14 23,5 C 22,6 C 25,1 C 77 % 0 % 1007 hPa 0,0 l/m 6,3 km/h (2 Bft)
12.08.2010 16:17 23,5 C 22,6 C 24,9 C 77 % 0 % 1007 hPa 0,0 l/m 0,1 km/h (0 Bft)
12.08.2010 16:20 23,5 C 22,6 C 24,7 C 77 % 0 % 1007 hPa 0,0 l/m 0,1 km/h (0 Bft)
12.08.2010 16:23 23,5 C 22,6 C 24,6 C 77 % 0 % 1007 hPa 0,0 l/m 0,5 km/h (0 Bft)
12.08.2010 16:26 23,5 C 22,6 C 24,0 C 77 % 0 % 1007 hPa 0,0 l/m 3,6 km/h (1 Bft)
12.08.2010 16:29 23,4 C 22,6 C 24,7 C 77 % 0 % 1007 hPa 0,0 l/m 3,7 km/h (1 Bft)
12.08.2010 16:32 23,4 C 22,6 C 25,4 C 77 % 0 % 1007 hPa 0,0 l/m 8,2 km/h (2 Bft)
12.08.2010 16:35 23,5 C 22,6 C 25,6 C 77 % 0 % 1007 hPa 0,0 l/m 9,6 km/h (2 Bft)
12.08.2010 16:38 23,5 C 23,0 C 25,2 C 72 % 0 % 1007 hPa 0,0 l/m 0,1 km/h (0 Bft)
12.08.2010 16:41 23,5 C 23,0 C 25,1 C 72 % 0 % 1007 hPa 0,0 l/m 0,6 km/h (0 Bft)
12.08.2010 16:44 23,5 C 23,0 C 25,1 C 72 % 0 % 1007 hPa 0,0 l/m 6,4 km/h (2 Bft)
12.08.2010 16:47 23,5 C 23,0 C 23,9 C 72 % 0 % 1007 hPa 0,0 l/m 5,8 km/h (2 Bft)
12.08.2010 16:50 23,5 C 23,0 C 23,1 C 72 % 0 % 1007 hPa 0,0 l/m 4,5 km/h (1 Bft)
12.08.2010 16:53 23,5 C 23,0 C 22,7 C 72 % 0 % 1007 hPa 0,0 l/m 4,0 km/h (1 Bft)
12.08.2010 16:56 23,5 C 23,0 C 22,7 C 72 % 0 % 1007 hPa 0,0 l/m 4,7 km/h (1 Bft)
12.08.2010 16:59 23,5 C 23,0 C 22,1 C 72 % 0 % 1007 hPa 0,0 l/m 3,5 km/h (1 Bft)
12.08.2010 17:02 23,5 C 23,0 C 22,2 C 72 % 0 % 1007 hPa 0,0 l/m 3,7 km/h (1 Bft)
12.08.2010 17:05 23,5 C 22,6 C 22,3 C 72 % 0 % 1007 hPa 0,0 l/m 8,0 km/h (2 Bft)
12.08.2010 17:08 23,5 C 22,6 C 22,1 C 72 % 0 % 1007 hPa 0,0 l/m 5,2 km/h (1 Bft)
12.08.2010 17:11 23,6 C 22,5 C 22,1 C 73 % 0 % 1007 hPa 0,0 l/m 5,6 km/h (1 Bft)
12.08.2010 17:14 23,6 C 22,5 C 22,0 C 73 % 0 % 1007 hPa 0,0 l/m 11,3 km/h (2 Bft)
12.08.2010 17:17 23,6 C 22,5 C 21,8 C 73 % 0 % 1007 hPa 0,0 l/m 12,0 km/h (2 Bft)
12.08.2010 17:20 23,7 C 22,5 C 21,7 C 70 % 0 % 1007 hPa 0,0 l/m 13,3 km/h (3 Bft)
12.08.2010 17:23 23,7 C 22,5 C 21,6 C 70 % 0 % 1007 hPa 0,0 l/m 9,2 km/h (2 Bft)
12.08.2010 17:26 23,6 C 22,4 C 21,5 C 71 % 0 % 1007 hPa 0,0 l/m 7,0 km/h (2 Bft)
12.08.2010 17:29 23,7 C 22,4 C 21,5 C 71 % 0 % 1007 hPa 0,0 l/m 8,9 km/h (2 Bft)
12.08.2010 17:32 23,7 C 22,4 C 21,6 C 71 % 0 % 1007 hPa 0,0 l/m 9,5 km/h (2 Bft)
12.08.2010 17:35 23,8 C 22,4 C 21,6 C 71 % 0 % 1007 hPa 0,0 l/m 9,5 km/h (2 Bft)
12.08.2010 17:38 23,8 C 22,4 C 21,7 C 71 % 0 % 1007 hPa 0,0 l/m 0,8 km/h (0 Bft)
12.08.2010 17:41 23,8 C 22,3 C 21,8 C 72 % 0 % 1007 hPa 0,0 l/m 4,3 km/h (1 Bft)
12.08.2010 17:44 23,8 C 22,3 C 21,4 C 72 % 0 % 1007 hPa 0,0 l/m 8,3 km/h (2 Bft)
12.08.2010 17:47 23,8 C 22,2 C 21,5 C 72 % 0 % 1007 hPa 0,0 l/m 8,9 km/h (2 Bft)
12.08.2010 17:50 23,8 C 22,2 C 21,5 C 72 % 0 % 1007 hPa 0,0 l/m 7,0 km/h (2 Bft)
12.08.2010 17:53 23,8 C 22,2 C 21,5 C 71 % 0 % 1007 hPa 0,0 l/m 9,4 km/h (2 Bft)
12.08.2010 17:56 23,8 C 22,2 C 21,5 C 71 % 0 % 1007 hPa 0,0 l/m 9,1 km/h (2 Bft)
12.08.2010 17:59 23,8 C 22,2 C 21,7 C 71 % 0 % 1007 hPa 0,0 l/m 7,0 km/h (2 Bft)
12.08.2010 18:02 23,8 C 22,2 C 21,8 C 71 % 0 % 1007 hPa 0,0 l/m 1,0 km/h (0 Bft)
12.08.2010 18:05 23,8 C 22,4 C 21,7 C 72 % 0 % 1007 hPa 0,0 l/m 0,0 km/h (0 Bft)
12.08.2010 18:08 23,8 C 22,4 C 21,7 C 72 % 0 % 1007 hPa 0,0 l/m 2,9 km/h (1 Bft)
12.08.2010 18:11 23,7 C 22,4 C 21,7 C 72 % 0 % 1008 hPa 0,0 l/m 7,3 km/h (2 Bft)
12.08.2010 18:14 23,8 C 22,4 C 21,8 C 72 % 0 % 1008 hPa 0,0 l/m 6,8 km/h (2 Bft)
12.08.2010 18:17 23,7 C 22,4 C 21,7 C 72 % 0 % 1008 hPa 0,0 l/m 0,2 km/h (0 Bft)
12.08.2010 18:20 23,8 C 22,4 C 21,7 C 72 % 0 % 1008 hPa 0,0 l/m 0,0 km/h (0 Bft)
12.08.2010 18:23 23,7 C 22,4 C 21,5 C 73 % 0 % 1008 hPa 0,0 l/m 0,0 km/h (0 Bft)
12.08.2010 18:26 23,7 C 22,4 C 21,4 C 73 % 0 % 1008 hPa 0,0 l/m 0,1 km/h (0 Bft)
12.08.2010 18:29 23,6 C 22,3 C 21,2 C 74 % 0 % 1008 hPa 0,0 l/m 0,0 km/h (0 Bft)
12.08.2010 18:32 23,6 C 22,3 C 21,1 C 74 % 0 % 1008 hPa 0,0 l/m 0,0 km/h (0 Bft)
12.08.2010 18:35 23,6 C 22,1 C 21,0 C 74 % 0 % 1008 hPa 0,0 l/m 0,0 km/h (0 Bft)
12.08.2010 18:38 23,5 C 22,0 C 21,0 C 74 % 0 % 1008 hPa 0,0 l/m 0,0 km/h (0 Bft)
12.08.2010 18:41 23,5 C 22,0 C 20,9 C 74 % 0 % 1008 hPa 0,0 l/m 0,0 km/h (0 Bft)
12.08.2010 18:44 23,5 C 21,9 C 20,9 C 75 % 0 % 1008 hPa 0,0 l/m 0,6 km/h (0 Bft)
12.08.2010 18:47 23,4 C 21,9 C 20,8 C 75 % 0 % 1008 hPa 0,0 l/m 0,6 km/h (0 Bft)
12.08.2010 18:50 23,4 C 21,9 C 20,7 C 75 % 0 % 1008 hPa 0,0 l/m 0,0 km/h (0 Bft)
12.08.2010 18:53 23,4 C 21,9 C 20,7 C 75 % 0 % 1008 hPa 0,0 l/m 0,0 km/h (0 Bft)
12.08.2010 18:56 23,4 C 21,9 C 20,7 C 75 % 0 % 1008 hPa 0,0 l/m 0,0 km/h (0 Bft)
12.08.2010 18:59 23,4 C 21,9 C 20,7 C 75 % 0 % 1008 hPa 0,0 l/m 0,0 km/h (0 Bft)
12.08.2010 19:02 23,4 C 21,9 C 20,6 C 75 % 0 % 1008 hPa 0,0 l/m 2,2 km/h (1 Bft)
12.08.2010 19:05 23,4 C 21,6 C 20,4 C 75 % 0 % 1008 hPa 0,0 l/m 5,1 km/h (1 Bft)
12.08.2010 19:08 23,3 C 21,6 C 20,3 C 75 % 0 % 1008 hPa 0,0 l/m 7,6 km/h (2 Bft)
12.08.2010 19:11 23,4 C 21,6 C 20,3 C 75 % 0 % 1008 hPa 0,0 l/m 5,3 km/h (1 Bft)
12.08.2010 19:14 23,3 C 21,6 C 20,3 C 75 % 0 % 1008 hPa 0,0 l/m 0,0 km/h (0 Bft)
12.08.2010 19:17 23,3 C 21,6 C 20,4 C 75 % 0 % 1008 hPa 0,0 l/m 0,0 km/h (0 Bft)
12.08.2010 19:20 23,3 C 21,6 C 20,4 C 75 % 0 % 1008 hPa 0,0 l/m 0,0 km/h (0 Bft)
12.08.2010 19:23 23,3 C 21,3 C 20,2 C 75 % 0 % 1008 hPa 0,0 l/m 0,0 km/h (0 Bft)
12.08.2010 19:26 23,2 C 21,3 C 20,2 C 76 % 0 % 1008 hPa 0,0 l/m 0,0 km/h (0 Bft)
12.08.2010 19:29 23,2 C 21,3 C 20,2 C 76 % 0 % 1008 hPa 0,0 l/m 0,0 km/h (0 Bft)
12.08.2010 19:32 23,2 C 21,2 C 20,1 C 76 % 0 % 1008 hPa 0,0 l/m 0,0 km/h (0 Bft)
12.08.2010 19:35 23,2 C 21,1 C 20,1 C 76 % 0 % 1008 hPa 0,0 l/m 0,0 km/h (0 Bft)
12.08.2010 19:38 23,2 C 21,1 C 20,0 C 76 % 0 % 1008 hPa 0,0 l/m 0,0 km/h (0 Bft)
12.08.2010 19:41 23,2 C 21,0 C 20,0 C 76 % 0 % 1008 hPa 0,0 l/m 0,0 km/h (0 Bft)
12.08.2010 19:44 23,1 C 21,0 C 19,8 C 76 % 0 % 1008 hPa 0,0 l/m 0,0 km/h (0 Bft)
12.08.2010 19:47 23,1 C 20,9 C 19,8 C 76 % 0 % 1008 hPa 0,0 l/m 0,0 km/h (0 Bft)
12.08.2010 19:50 23,1 C 20,9 C 19,8 C 76 % 0 % 1008 hPa 0,0 l/m 0,0 km/h (0 Bft)
12.08.2010 19:53 23,0 C 20,8 C 19,8 C 76 % 0 % 1008 hPa 0,0 l/m 0,0 km/h (0 Bft)
12.08.2010 19:56 23,0 C 20,8 C 19,8 C 76 % 0 % 1008 hPa 0,0 l/m 0,0 km/h (0 Bft)
12.08.2010 19:59 23,1 C 20,8 C 19,6 C 76 % 0 % 1008 hPa 0,0 l/m 0,0 km/h (0 Bft)
12.08.2010 20:02 23,2 C 20,7 C 19,6 C 77 % 0 % 1008 hPa 0,0 l/m 0,0 km/h (0 Bft)
12.08.2010 20:05 23,2 C 20,7 C 19,5 C 77 % 0 % 1008 hPa 0,0 l/m 0,0 km/h (0 Bft)
12.08.2010 20:08 23,4 C 20,6 C 19,4 C 77 % 0 % 1008 hPa 0,0 l/m 0,0 km/h (0 Bft)
12.08.2010 20:11 23,4 C 20,5 C 19,3 C 77 % 0 % 1008 hPa 0,0 l/m 0,0 km/h (0 Bft)
12.08.2010 20:14 23,4 C 20,5 C 19,3 C 77 % 0 % 1008 hPa 0,0 l/m 0,0 km/h (0 Bft)
12.08.2010 20:17 23,5 C 20,4 C 19,2 C 77 % 0 % 1008 hPa 0,0 l/m 0,0 km/h (0 Bft)
12.08.2010 20:20 23,6 C 20,4 C 19,3 C 77 % 0 % 1008 hPa 0,0 l/m 0,0 km/h (0 Bft)
12.08.2010 20:23 23,6 C 20,4 C 19,2 C 77 % 0 % 1008 hPa 0,0 l/m 0,0 km/h (0 Bft)
12.08.2010 20:26 23,6 C 20,2 C 19,3 C 77 % 0 % 1008 hPa 0,0 l/m 0,0 km/h (0 Bft)
12.08.2010 20:29 23,6 C 20,2 C 19,3 C 77 % 0 % 1008 hPa 0,0 l/m 0,0 km/h (0 Bft)
12.08.2010 20:32 23,6 C 20,2 C 19,4 C 77 % 0 % 1008 hPa 0,0 l/m 0,0 km/h (0 Bft)
12.08.2010 20:35 23,6 C 20,2 C 19,4 C 77 % 0 % 1008 hPa 0,0 l/m 0,0 km/h (0 Bft)
12.08.2010 20:38 23,6 C 20,2 C 19,4 C 77 % 0 % 1008 hPa 0,0 l/m 0,0 km/h (0 Bft)
12.08.2010 20:41 23,6 C 20,2 C 19,4 C 77 % 0 % 1008 hPa 0,0 l/m 0,0 km/h (0 Bft)
12.08.2010 20:44 23,6 C 19,9 C 19,4 C 80 % 0 % 1008 hPa 0,0 l/m 0,3 km/h (0 Bft)
12.08.2010 20:47 23,5 C 19,9 C 19,4 C 81 % 0 % 1009 hPa 0,0 l/m 0,7 km/h (0 Bft)
12.08.2010 20:50 23,5 C 19,9 C 19,4 C 81 % 0 % 1009 hPa 0,0 l/m 2,7 km/h (1 Bft)
12.08.2010 20:53 23,5 C 19,9 C 19,4 C 81 % 0 % 1009 hPa 0,0 l/m 7,4 km/h (2 Bft)
12.08.2010 20:56 23,5 C 19,9 C 19,3 C 81 % 0 % 1009 hPa 0,0 l/m 23,1 km/h (4 Bft)
12.08.2010 20:59 23,5 C 19,9 C 19,2 C 81 % 0 % 1009 hPa 0,0 l/m 28,9 km/h (5 Bft)
12.08.2010 21:02 23,5 C 19,0 C 18,8 C 85 % 0 % 1009 hPa 0,0 l/m 19,6 km/h (3 Bft)
12.08.2010 21:05 23,5 C 18,6 C 18,5 C 87 % 0 % 1009 hPa 0,0 l/m 19,1 km/h (3 Bft)
12.08.2010 21:08 23,5 C 18,3 C 18,2 C 88 % 0 % 1009 hPa 0,0 l/m 17,7 km/h (3 Bft)
12.08.2010 21:11 23,5 C 18,0 C 18,0 C 88 % 0 % 1009 hPa 0,0 l/m 19,0 km/h (3 Bft)
12.08.2010 21:14 23,5 C 18,0 C 17,8 C 88 % 0 % 1009 hPa 0,0 l/m 19,0 km/h (3 Bft)
12.08.2010 21:17 23,5 C 17,4 C 17,5 C 89 % 0 % 1010 hPa 0,0 l/m 25,8 km/h (4 Bft)
12.08.2010 21:20 23,5 C 17,1 C 17,3 C 89 % 0 % 1010 hPa 0,0 l/m 28,2 km/h (4 Bft)
12.08.2010 21:23 23,6 C 17,1 C 17,2 C 89 % 0 % 1010 hPa 0,0 l/m 27,3 km/h (4 Bft)
12.08.2010 21:26 23,5 C 17,1 C 17,2 C 89 % 0 % 1010 hPa 0,0 l/m 20,8 km/h (4 Bft)
12.08.2010 21:29 23,6 C 17,1 C 17,2 C 89 % 0 % 1010 hPa 0,0 l/m 19,6 km/h (3 Bft)
12.08.2010 21:32 23,6 C 16,8 C 17,3 C 90 % 0 % 1010 hPa 0,0 l/m 22,0 km/h (4 Bft)
12.08.2010 21:35 23,6 C 16,8 C 17,3 C 90 % 0 % 1010 hPa 0,3 l/m 22,0 km/h (4 Bft)
12.08.2010 21:38 23,6 C 16,8 C 17,3 C 90 % 0 % 1010 hPa 0,0 l/m 16,8 km/h (3 Bft)
12.08.2010 21:41 23,6 C 16,8 C 17,3 C 91 % 0 % 1010 hPa 0,0 l/m 15,3 km/h (3 Bft)
12.08.2010 21:44 23,5 C 16,9 C 17,5 C 91 % 0 % 1010 hPa 0,0 l/m 17,0 km/h (3 Bft)
12.08.2010 21:47 23,5 C 16,9 C 17,6 C 91 % 0 % 1010 hPa 0,0 l/m 11,1 km/h (2 Bft)
12.08.2010 21:50 23,5 C 16,9 C 17,7 C 91 % 0 % 1010 hPa 0,0 l/m 13,1 km/h (3 Bft)
12.08.2010 21:53 23,5 C 16,9 C 17,8 C 91 % 0 % 1010 hPa 0,0 l/m 12,3 km/h (3 Bft)
12.08.2010 21:56 23,5 C 16,9 C 17,9 C 91 % 0 % 1010 hPa 0,0 l/m 8,9 km/h (2 Bft)
12.08.2010 21:59 23,6 C 16,9 C 17,9 C 91 % 0 % 1010 hPa 0,0 l/m 12,9 km/h (3 Bft)
12.08.2010 22:02 23,5 C 16,9 C 18,0 C 91 % 0 % 1010 hPa 0,3 l/m 15,5 km/h (3 Bft)
12.08.2010 22:05 23,5 C 16,9 C 18,0 C 91 % 0 % 1010 hPa 0,0 l/m 12,7 km/h (3 Bft)
12.08.2010 22:08 23,5 C 16,8 C 17,9 C 91 % 0 % 1010 hPa 0,0 l/m 15,3 km/h (3 Bft)
12.08.2010 22:11 23,5 C 16,9 C 17,9 C 91 % 0 % 1010 hPa 0,0 l/m 9,6 km/h (2 Bft)
12.08.2010 22:14 23,5 C 16,9 C 18,0 C 91 % 0 % 1010 hPa 0,0 l/m 8,5 km/h (2 Bft)
12.08.2010 22:17 23,5 C 16,9 C 18,1 C 91 % 0 % 1010 hPa 0,0 l/m 6,1 km/h (2 Bft)
12.08.2010 22:20 23,5 C 16,9 C 18,1 C 91 % 0 % 1010 hPa 0,0 l/m 3,3 km/h (1 Bft)
12.08.2010 22:23 23,5 C 17,0 C 18,2 C 91 % 0 % 1010 hPa 0,0 l/m 0,2 km/h (0 Bft)
12.08.2010 22:26 23,5 C 17,0 C 18,2 C 91 % 0 % 1010 hPa 0,0 l/m 1,1 km/h (1 Bft)
12.08.2010 22:29 23,5 C 17,0 C 18,2 C 90 % 0 % 1010 hPa 0,0 l/m 0,8 km/h (0 Bft)
12.08.2010 22:32 23,5 C 17,0 C 18,2 C 90 % 0 % 1010 hPa 0,0 l/m 0,9 km/h (0 Bft)
12.08.2010 22:35 23,5 C 17,0 C 18,3 C 90 % 0 % 1010 hPa 0,0 l/m 0,3 km/h (0 Bft)
12.08.2010 22:38 23,5 C 17,0 C 18,2 C 90 % 0 % 1010 hPa 0,0 l/m 0,3 km/h (0 Bft)
12.08.2010 22:41 23,5 C 17,0 C 18,2 C 90 % 0 % 1010 hPa 0,0 l/m 0,0 km/h (0 Bft)
12.08.2010 22:44 23,5 C 17,0 C 18,1 C 90 % 0 % 1010 hPa 0,0 l/m 0,0 km/h (0 Bft)
12.08.2010 22:47 23,5 C 17,0 C 18,1 C 90 % 0 % 1010 hPa 0,0 l/m 0,0 km/h (0 Bft)
12.08.2010 22:50 23,5 C 16,9 C 17,9 C 91 % 0 % 1010 hPa 0,0 l/m 0,0 km/h (0 Bft)
12.08.2010 22:53 23,5 C 16,9 C 17,9 C 91 % 0 % 1010 hPa 0,0 l/m 0,0 km/h (0 Bft)
12.08.2010 22:56 23,5 C 16,8 C 18,0 C 91 % 0 % 1011 hPa 0,0 l/m 0,0 km/h (0 Bft)
12.08.2010 22:59 23,5 C 16,8 C 17,9 C 91 % 0 % 1011 hPa 0,0 l/m 0,1 km/h (0 Bft)
12.08.2010 23:02 23,4 C 16,8 C 17,9 C 91 % 0 % 1011 hPa 0,0 l/m 0,5 km/h (0 Bft)
12.08.2010 23:05 23,5 C 16,7 C 17,8 C 92 % 0 % 1011 hPa 0,0 l/m 0,0 km/h (0 Bft)
12.08.2010 23:08 23,5 C 16,7 C 17,8 C 92 % 0 % 1011 hPa 0,0 l/m 0,0 km/h (0 Bft)
12.08.2010 23:11 23,5 C 16,7 C 17,9 C 92 % 0 % 1011 hPa 0,0 l/m 0,1 km/h (0 Bft)
12.08.2010 23:14 23,5 C 16,7 C 17,9 C 92 % 0 % 1011 hPa 0,0 l/m 0,0 km/h (0 Bft)
12.08.2010 23:17 23,4 C 16,7 C 17,9 C 92 % 0 % 1011 hPa 0,0 l/m 0,0 km/h (0 Bft)
12.08.2010 23:20 23,5 C 16,8 C 17,9 C 92 % 0 % 1011 hPa 0,0 l/m 0,0 km/h (0 Bft)
12.08.2010 23:23 23,5 C 16,8 C 17,9 C 92 % 0 % 1011 hPa 0,0 l/m 0,0 km/h (0 Bft)
12.08.2010 23:26 23,5 C 16,8 C 17,9 C 92 % 0 % 1011 hPa 0,0 l/m 0,0 km/h (0 Bft)
12.08.2010 23:29 23,4 C 16,8 C 17,9 C 92 % 0 % 1011 hPa 0,0 l/m 0,0 km/h (0 Bft)
12.08.2010 23:32 23,4 C 16,8 C 17,9 C 92 % 0 % 1011 hPa 0,0 l/m 0,0 km/h (0 Bft)
12.08.2010 23:35 23,4 C 16,8 C 18,0 C 92 % 0 % 1011 hPa 0,0 l/m 0,0 km/h (0 Bft)
12.08.2010 23:38 23,4 C 16,8 C 17,9 C 93 % 0 % 1011 hPa 0,0 l/m 0,0 km/h (0 Bft)
12.08.2010 23:41 23,4 C 16,8 C 17,9 C 93 % 0 % 1011 hPa 0,0 l/m 0,0 km/h (0 Bft)
12.08.2010 23:44 23,4 C 16,8 C 17,9 C 93 % 0 % 1011 hPa 0,0 l/m 0,0 km/h (0 Bft)
12.08.2010 23:47 23,4 C 16,8 C 18,0 C 93 % 0 % 1011 hPa 0,0 l/m 0,0 km/h (0 Bft)
12.08.2010 23:50 23,4 C 16,8 C 17,9 C 93 % 0 % 1011 hPa 0,0 l/m 0,0 km/h (0 Bft)
12.08.2010 23:53 23,4 C 16,8 C 18,0 C 93 % 0 % 1011 hPa 0,0 l/m 0,0 km/h (0 Bft)
12.08.2010 23:56 23,4 C 16,8 C 18,0 C 93 % 0 % 1011 hPa 0,0 l/m 0,0 km/h (0 Bft)
12.08.2010 23:59 23,4 C 16,9 C 18,1 C 93 % 0 % 1011 hPa 0,0 l/m 0,0 km/h (0 Bft)
_ Min-Zeit 08:14 06:26 04:56 13:20 - 07:14 - 00:02
Minimum _ 22,3 C 16,1 C 17,0 C 70 % - 1006 hPa - 0,0 km/h (0 Bft)
_ Max-Zeit 17:35 12:56 16:35 23:38 00:02 22:56 21:35 20:59
Maximum _ 23,8 C 23,2 C 25,6 C 93 % 0 % 1011 hPa 0,3 l/m 28,9 km/h
W (5 Bft)
Durchschnitt _ 23,3 C 19,7 C 19,6 C 82 % #0 min. 1008 hPa #0,7 l/m 4,4 km/h (1 Bft)